Time,TemperatureF,DewpointF,PressureIn,WindDirection,WindDirectionDegrees,WindSpeedMPH,WindSpeedGustMPH,Humidity,HourlyPrecipIn,Conditions,Clouds,dailyrainin,SolarRadiationWatts/m^2,SoftwareType,DateUTC
2013-09-21 00:13:00,63.5,58.0,29.82,West,271,0.0,1.0,83,0.00,,,0.00,0,weatherlink.com 1.10,2013-09-21 07:13:00,
2013-09-21 00:28:00,63.1,59.0,29.82,NE,44,0.0,3.0,85,0.00,,,0.00,0,weatherlink.com 1.10,2013-09-21 07:28:00,
2013-09-21 00:43:00,62.9,58.0,29.82,NE,44,0.0,1.0,85,0.00,,,0.00,0,weatherlink.com 1.10,2013-09-21 07:43:00,
2013-09-21 00:58:00,62.9,58.0,29.82,NE,44,0.0,0.0,85,0.00,,,0.00,0,weatherlink.com 1.10,2013-09-21 07:58:00,
2013-09-21 01:13:00,62.8,58.0,29.82,NE,44,0.0,0.0,85,0.00,,,0.00,0,weatherlink.com 1.10,2013-09-21 08:13:00,
2013-09-21 01:28:00,62.9,59.0,29.82,NE,44,0.0,1.0,86,0.00,,,0.00,0,weatherlink.com 1.10,2013-09-21 08:28:00,
2013-09-21 01:43:00,63.0,59.0,29.81,NE,42,0.0,1.0,86,0.00,,,0.00,0,weatherlink.com 1.10,2013-09-21 08:43:00,
2013-09-21 01:58:00,63.2,59.0,29.81,NE,43,0.0,1.0,85,0.00,,,0.00,0,weatherlink.com 1.10,2013-09-21 08:58:00,
2013-09-21 02:13:00,63.2,59.0,29.81,NE,43,0.0,0.0,85,0.00,,,0.00,0,weatherlink.com 1.10,2013-09-21 09:13:00,
2013-09-21 02:28:00,63.2,59.0,29.81,West,275,0.0,3.0,85,0.00,,,0.00,0,weatherlink.com 1.10,2013-09-21 09:28:00,
2013-09-21 02:43:00,63.3,58.0,29.80,ENE,57,0.0,2.0,84,0.00,,,0.00,0,weatherlink.com 1.10,2013-09-21 09:43:00,
2013-09-21 02:58:00,63.4,59.0,29.80,SE,140,1.0,4.0,84,0.00,,,0.00,0,weatherlink.com 1.10,2013-09-21 09:58:00,
2013-09-21 03:13:00,63.5,59.0,29.80,SW,219,0.0,2.0,84,0.00,,,0.00,0,weatherlink.com 1.10,2013-09-21 10:13:00,
2013-09-21 03:28:00,63.6,59.0,29.80,SE,136,0.0,1.0,85,0.00,,,0.00,0,weatherlink.com 1.10,2013-09-21 10:28:00,
2013-09-21 03:43:00,63.4,60.0,29.80,North,5,0.0,2.0,87,0.00,,,0.00,0,weatherlink.com 1.10,2013-09-21 10:43:00,
2013-09-21 03:58:00,63.1,60.0,29.80,North,5,0.0,1.0,88,0.00,,,0.00,0,weatherlink.com 1.10,2013-09-21 10:58:00,
2013-09-21 04:13:00,62.7,60.0,29.80,NNE,30,0.0,3.0,89,0.00,,,0.00,0,weatherlink.com 1.10,2013-09-21 11:13:00,
2013-09-21 04:28:00,62.5,59.0,29.79,WNW,284,0.0,3.0,89,0.00,,,0.00,0,weatherlink.com 1.10,2013-09-21 11:28:00,
2013-09-21 04:43:00,62.3,59.0,29.79,West,271,0.0,2.0,89,0.00,,,0.00,0,weatherlink.com 1.10,2013-09-21 11:43:00,
2013-09-21 04:58:00,62.1,59.0,29.80,West,271,0.0,1.0,89,0.00,,,0.00,0,weatherlink.com 1.10,2013-09-21 11:58:00,
2013-09-21 05:13:00,61.8,59.0,29.79,West,271,0.0,1.0,89,0.00,,,0.00,0,weatherlink.com 1.10,2013-09-21 12:13:00,
2013-09-21 05:28:00,61.7,59.0,29.80,WSW,258,2.0,4.0,89,0.00,,,0.00,0,weatherlink.com 1.10,2013-09-21 12:28:00,
2013-09-21 05:43:00,61.4,58.0,29.80,West,259,0.0,1.0,89,0.00,,,0.00,0,weatherlink.com 1.10,2013-09-21 12:43:00,
2013-09-21 05:58:00,61.2,58.0,29.80,WNW,297,0.0,1.0,89,0.00,,,0.00,0,weatherlink.com 1.10,2013-09-21 12:58:00,
2013-09-21 06:13:00,61.1,58.0,29.79,WNW,297,0.0,0.0,89,0.00,,,0.00,0,weatherlink.com 1.10,2013-09-21 13:13:00,
2013-09-21 06:28:00,61.0,58.0,29.80,WNW,294,0.0,2.0,89,0.00,,,0.00,0,weatherlink.com 1.10,2013-09-21 13:28:00,
2013-09-21 06:43:00,60.9,57.0,29.80,WNW,291,0.0,1.0,88,0.00,,,0.00,0,weatherlink.com 1.10,2013-09-21 13:43:00,
2013-09-21 06:58:00,60.7,57.0,29.81,WNW,291,0.0,1.0,88,0.00,,,0.00,0,weatherlink.com 1.10,2013-09-21 13:58:00,
2013-09-21 07:13:00,60.7,57.0,29.80,WNW,294,0.0,1.0,88,0.00,,,0.00,5,weatherlink.com 1.10,2013-09-21 14:13:00,
2013-09-21 07:28:00,60.8,57.0,29.80,WNW,294,0.0,0.0,88,0.00,,,0.00,9,weatherlink.com 1.10,2013-09-21 14:28:00,
2013-09-21 07:43:00,60.7,57.0,29.80,WNW,294,0.0,1.0,87,0.00,,,0.00,19,weatherlink.com 1.10,2013-09-21 14:43:00,
2013-09-21 07:58:00,60.6,57.0,29.80,WNW,294,0.0,0.0,87,0.00,,,0.00,58,weatherlink.com 1.10,2013-09-21 14:58:00,
2013-09-21 08:13:00,60.9,57.0,29.80,East,84,0.0,2.0,88,0.00,,,0.00,111,weatherlink.com 1.10,2013-09-21 15:13:00,
2013-09-21 08:28:00,61.6,58.0,29.80,East,82,0.0,3.0,87,0.00,,,0.00,88,weatherlink.com 1.10,2013-09-21 15:28:00,
2013-09-21 08:43:00,62.2,58.0,29.80,East,87,1.0,4.0,85,0.00,,,0.00,130,weatherlink.com 1.10,2013-09-21 15:43:00,
2013-09-21 08:58:00,62.8,58.0,29.81,East,87,0.0,1.0,84,0.00,,,0.00,107,weatherlink.com 1.10,2013-09-21 15:58:00,
2013-09-21 09:14:00,63.3,58.0,29.81,East,87,0.0,1.0,83,0.00,,,0.00,62,weatherlink.com 1.10,2013-09-21 16:14:00,
2013-09-21 09:29:00,63.6,58.0,29.80,ESE,107,1.0,2.0,81,0.00,,,0.00,88,weatherlink.com 1.10,2013-09-21 16:29:00,
2013-09-21 09:44:00,63.8,58.0,29.80,ESE,105,1.0,2.0,80,0.00,,,0.00,49,weatherlink.com 1.10,2013-09-21 16:44:00,
2013-09-21 09:59:00,63.8,59.0,29.81,WSW,244,0.0,1.0,83,0.02,,,0.02,76,weatherlink.com 1.10,2013-09-21 16:59:00,
2013-09-21 10:14:00,63.4,59.0,29.81,WSW,244,0.0,0.0,85,0.02,,,0.02,30,weatherlink.com 1.10,2013-09-21 17:14:00,
2013-09-21 10:29:00,62.9,59.0,29.82,WSW,244,0.0,0.0,86,0.03,,,0.03,25,weatherlink.com 1.10,2013-09-21 17:29:00,
2013-09-21 10:44:00,62.4,59.0,29.81,WSW,244,0.0,0.0,87,0.13,,,0.13,23,weatherlink.com 1.10,2013-09-21 17:44:00,
2013-09-21 10:50:00,62.2,58.6,29.82,WSW,244,0.0,0.0,88,0.65,,,0.20,30,Wunderground v.1.15,2013-09-21 17:50:00,
2013-09-21 11:00:00,61.8,59.0,29.82,NW,313,0.0,2.0,89,0.24,,,0.26,21,weatherlink.com 1.10,2013-09-21 18:00:00,
2013-09-21 11:15:00,61.0,58.0,29.81,WNW,286,0.0,4.0,90,0.29,,,0.31,35,weatherlink.com 1.10,2013-09-21 18:15:00,
2013-09-21 11:30:00,60.6,58.0,29.82,West,281,0.0,1.0,91,0.32,,,0.36,33,weatherlink.com 1.10,2013-09-21 18:30:00,
2013-09-21 11:45:00,60.5,58.0,29.82,West,281,0.0,1.0,92,0.26,,,0.39,46,weatherlink.com 1.10,2013-09-21 18:45:00,
2013-09-21 12:00:00,60.6,59.0,29.82,West,281,0.0,1.0,93,0.14,,,0.40,72,weatherlink.com 1.10,2013-09-21 19:00:00,
2013-09-21 12:15:00,60.7,59.0,29.82,West,281,1.0,1.0,94,0.12,,,0.43,118,weatherlink.com 1.10,2013-09-21 19:15:00,
2013-09-21 12:30:00,60.4,58.0,29.82,West,275,0.0,3.0,93,0.12,,,0.48,163,weatherlink.com 1.10,2013-09-21 19:30:00,
2013-09-21 12:45:00,60.5,59.0,29.82,West,273,0.0,5.0,94,0.11,,,0.50,176,weatherlink.com 1.10,2013-09-21 19:45:00,
2013-09-21 13:00:00,60.6,59.0,29.82,West,272,0.0,2.0,94,0.11,,,0.51,135,weatherlink.com 1.10,2013-09-21 20:00:00,
2013-09-21 13:15:00,60.4,59.0,29.82,West,277,1.0,3.0,94,0.09,,,0.52,98,weatherlink.com 1.10,2013-09-21 20:15:00,
2013-09-21 13:30:00,60.3,59.0,29.82,West,277,0.0,2.0,94,0.04,,,0.52,72,weatherlink.com 1.10,2013-09-21 20:30:00,
2013-09-21 13:44:00,60.1,58.0,29.82,West,277,0.0,2.0,94,0.02,,,0.52,65,weatherlink.com 1.10,2013-09-21 20:44:00,
2013-09-21 14:00:00,59.8,58.0,29.82,West,277,1.0,3.0,94,0.01,,,0.52,121,weatherlink.com 1.10,2013-09-21 21:00:00,
2013-09-21 14:15:00,60.0,59.0,29.82,West,279,0.0,3.0,95,0.00,,,0.52,199,weatherlink.com 1.10,2013-09-21 21:15:00,
2013-09-21 14:30:00,60.5,59.0,29.81,WNW,290,0.0,3.0,95,0.00,,,0.52,246,weatherlink.com 1.10,2013-09-21 21:30:00,
2013-09-21 14:45:00,60.9,60.0,29.81,West,265,0.0,3.0,95,0.00,,,0.52,218,weatherlink.com 1.10,2013-09-21 21:45:00,
2013-09-21 15:00:00,60.9,59.0,29.81,West,266,3.0,5.0,94,0.00,,,0.52,265,weatherlink.com 1.10,2013-09-21 22:00:00,
2013-09-21 15:15:00,61.2,59.0,29.81,WNW,284,1.0,5.0,93,0.00,,,0.52,79,weatherlink.com 1.10,2013-09-21 22:15:00,
2013-09-21 15:30:00,61.2,58.0,29.81,West,275,0.0,4.0,90,0.00,,,0.52,63,weatherlink.com 1.10,2013-09-21 22:30:00,
2013-09-21 15:45:00,61.6,58.0,29.81,West,271,2.0,6.0,88,0.00,,,0.52,39,weatherlink.com 1.10,2013-09-21 22:45:00,
2013-09-21 15:59:00,61.9,57.0,29.81,West,277,1.0,6.0,85,0.00,,,0.52,28,weatherlink.com 1.10,2013-09-21 22:59:00,
2013-09-21 16:15:00,61.8,57.0,29.81,NW,309,2.0,6.0,85,0.00,,,0.52,32,weatherlink.com 1.10,2013-09-21 23:15:00,
2013-09-21 16:29:00,61.8,57.0,29.81,WNW,302,1.0,4.0,85,0.00,,,0.52,26,weatherlink.com 1.10,2013-09-21 23:29:00,
2013-09-21 16:45:00,61.6,56.0,29.81,WNW,298,0.0,6.0,83,0.00,,,0.52,26,weatherlink.com 1.10,2013-09-21 23:45:00,
2013-09-21 17:00:00,61.8,56.0,29.81,WSW,240,6.0,6.0,82,0.00,,,0.52,23,weatherlink.com 1.10,2013-09-22 00:00:00,
2013-09-21 17:15:00,61.9,56.0,29.81,WSW,254,4.0,7.0,82,0.00,,,0.52,19,weatherlink.com 1.10,2013-09-22 00:15:00,
2013-09-21 17:30:00,61.7,57.0,29.81,West,267,2.0,4.0,83,0.00,,,0.52,28,weatherlink.com 1.10,2013-09-22 00:30:00,
2013-09-21 17:45:00,61.4,57.0,29.81,WNW,295,0.0,4.0,84,0.01,,,0.53,28,weatherlink.com 1.10,2013-09-22 00:45:00,
2013-09-21 18:00:00,61.3,57.0,29.81,West,271,1.0,3.0,84,0.01,,,0.53,14,weatherlink.com 1.10,2013-09-22 01:00:00,
2013-09-21 18:15:00,61.0,56.0,29.81,West,271,0.0,2.0,84,0.01,,,0.53,11,weatherlink.com 1.10,2013-09-22 01:15:00,
2013-09-21 18:29:00,60.6,56.0,29.82,West,271,0.0,2.0,84,0.01,,,0.53,9,weatherlink.com 1.10,2013-09-22 01:29:00,
2013-09-21 18:44:00,60.1,56.0,29.82,West,265,0.0,2.0,85,0.00,,,0.53,7,weatherlink.com 1.10,2013-09-22 01:44:00,
2013-09-21 18:59:00,59.6,55.0,29.82,West,265,0.0,2.0,85,0.00,,,0.53,0,weatherlink.com 1.10,2013-09-22 01:59:00,
2013-09-21 19:15:00,59.1,55.0,29.82,West,272,0.0,3.0,86,0.00,,,0.53,0,weatherlink.com 1.10,2013-09-22 02:15:00,
2013-09-21 19:30:00,58.8,55.0,29.82,West,272,1.0,3.0,87,0.00,,,0.53,0,weatherlink.com 1.10,2013-09-22 02:30:00,
2013-09-21 19:45:00,58.4,55.0,29.83,West,268,0.0,3.0,88,0.00,,,0.53,0,weatherlink.com 1.10,2013-09-22 02:45:00,
2013-09-21 20:00:00,58.2,55.0,29.84,WNW,285,1.0,1.0,88,0.00,,,0.53,0,weatherlink.com 1.10,2013-09-22 03:00:00,
2013-09-21 20:15:00,57.8,54.0,29.85,WNW,285,0.0,3.0,88,0.00,,,0.53,0,weatherlink.com 1.10,2013-09-22 03:15:00,
2013-09-21 20:30:00,57.6,54.0,29.85,WNW,285,0.0,1.0,88,0.00,,,0.53,0,weatherlink.com 1.10,2013-09-22 03:30:00,
2013-09-21 20:45:00,57.5,54.0,29.86,WNW,285,0.0,1.0,88,0.00,,,0.53,0,weatherlink.com 1.10,2013-09-22 03:45:00,
2013-09-21 21:00:00,57.4,54.0,29.86,West,267,0.0,3.0,89,0.00,,,0.53,0,weatherlink.com 1.10,2013-09-22 04:00:00,
2013-09-21 21:15:00,57.4,54.0,29.86,West,267,0.0,3.0,88,0.00,,,0.53,0,weatherlink.com 1.10,2013-09-22 04:15:00,
2013-09-21 21:30:00,57.5,54.0,29.87,WNW,286,0.0,3.0,88,0.00,,,0.53,0,weatherlink.com 1.10,2013-09-22 04:30:00,
2013-09-21 21:45:00,57.5,54.0,29.87,WNW,286,1.0,2.0,88,0.00,,,0.53,0,weatherlink.com 1.10,2013-09-22 04:45:00,
2013-09-21 22:00:00,57.3,54.0,29.86,West,276,2.0,3.0,89,0.00,,,0.53,0,weatherlink.com 1.10,2013-09-22 05:00:00,
2013-09-21 22:15:00,57.3,54.0,29.87,WNW,287,1.0,2.0,89,0.00,,,0.53,0,weatherlink.com 1.10,2013-09-22 05:15:00,
2013-09-21 22:30:00,57.2,54.0,29.87,West,281,2.0,3.0,89,0.00,,,0.53,0,weatherlink.com 1.10,2013-09-22 05:30:00,
2013-09-21 22:45:00,57.2,54.0,29.87,West,272,0.0,3.0,89,0.00,,,0.53,0,weatherlink.com 1.10,2013-09-22 05:45:00,
2013-09-21 23:00:00,57.0,54.0,29.88,West,272,0.0,2.0,89,0.00,,,0.53,0,weatherlink.com 1.10,2013-09-22 06:00:00,
2013-09-21 23:15:00,56.8,54.0,29.88,West,273,0.0,3.0,89,0.00,,,0.53,0,weatherlink.com 1.10,2013-09-22 06:15:00,
2013-09-21 23:30:00,56.7,54.0,29.88,West,273,0.0,1.0,89,0.00,,,0.53,0,weatherlink.com 1.10,2013-09-22 06:30:00,
2013-09-21 23:45:00,56.3,53.0,29.89,West,273,0.0,1.0,89,0.00,,,0.53,0,weatherlink.com 1.10,2013-09-22 06:45:00,